Date String (YYYY-MM-DD hh:mm:ss) UTC,Instrument flags,Ambient pressure (hPa),Sample flow (lpm),Bypass flow (lpm),Sample temperature (°C),Ambient temperature (°C),ASC tube jacket temperature (°C),LED temperature (°C),Box temperature (°C),Sample RH (%),Span deviation,Mass concentration (μg/m³),Mass concentration (μg/m³),Mass concentration (μg/m³)
DateTimeUTC,F1_M11,P_M11,Q1_M11,Q2_M11,T1_M11,T2_M11,T3_M11,T4_M11,T5_M11,U1_M11,ZSPAN_M11,X0_M11,X2_M11,X1_M11
2022-03-10 07:00:00,,0823.6,5.00,0.00,21.6,20.6,00.0,30.6,23.2,05.5,0000.0,0003.80,0003.09,0002.81
2022-03-10 07:01:00,,0823.6,5.00,0.00,21.6,20.3,00.0,30.6,23.1,05.5,0000.0,0003.82,0003.10,0002.83
2022-03-10 07:02:00,,0823.5,4.99,0.00,21.5,20.2,00.0,30.6,23.0,05.5,0000.0,0004.02,0003.16,0002.87
2022-03-10 07:03:00,,0823.4,5.01,0.00,21.5,21.1,00.0,30.6,23.2,05.5,0000.0,0004.11,0003.18,0002.89
2022-03-10 07:04:00,,0823.5,5.01,0.00,21.7,22.1,00.0,30.6,23.5,05.5,0000.0,0004.39,0003.23,0002.93
2022-03-10 07:05:00,,0823.6,4.99,0.00,21.8,22.6,00.0,30.7,23.7,05.4,0000.0,0004.52,0003.27,0002.95
2022-03-10 07:06:00,,0823.6,5.00,0.00,21.9,22.2,00.0,30.7,23.7,05.4,0000.0,0004.55,0003.27,0002.96
2022-03-10 07:07:00,,0823.6,5.01,0.00,21.8,21.8,00.0,30.7,23.6,05.4,0000.0,0004.63,0003.28,0002.98
2022-03-10 07:08:00,,0823.6,5.00,0.00,21.8,21.3,00.0,30.7,23.5,05.4,0000.0,0004.63,0003.27,0002.99
2022-03-10 07:09:00,,0823.5,5.00,0.00,21.7,21.0,00.0,30.7,23.4,05.4,0000.0,0004.73,0003.28,0002.98
2022-03-10 07:10:00,,0823.5,5.00,0.00,21.7,20.7,00.0,30.7,23.3,05.4,0000.0,0004.81,0003.29,0002.97
2022-03-10 07:11:00,,0823.5,4.99,0.00,21.6,20.5,00.0,30.7,23.2,05.4,0000.0,0005.64,0003.30,0002.96
2022-03-10 07:12:00,,0823.4,4.99,0.00,21.6,20.4,00.0,30.6,23.1,05.4,0000.0,0005.70,0003.31,0002.95
2022-03-10 07:13:00,,0823.5,5.00,0.00,21.6,21.1,00.0,30.7,23.2,05.4,0000.0,0005.59,0003.29,0002.93
2022-03-10 07:14:00,,0823.4,5.02,0.00,21.7,22.0,00.0,30.7,23.5,05.4,0000.0,0005.51,0003.27,0002.91
2022-03-10 07:15:00,,0823.3,5.00,0.00,21.9,22.7,00.0,30.7,23.8,05.3,0000.0,0005.45,0003.26,0002.89
2022-03-10 07:16:00,,0823.4,4.99,0.00,21.9,22.3,00.0,30.8,23.8,05.3,0000.0,0005.44,0003.25,0002.87
2022-03-10 07:17:00,,0823.4,5.01,0.00,21.9,21.8,00.0,30.8,23.7,05.3,0000.0,0005.51,0003.27,0002.86
2022-03-10 07:18:00,,0823.4,5.00,0.00,21.9,21.4,00.0,30.8,23.5,05.3,0000.0,0005.52,0003.28,0002.84
2022-03-10 07:19:00,,0823.3,5.00,0.00,21.8,21.0,00.0,30.7,23.4,05.3,0000.0,0005.55,0003.28,0002.83
2022-03-10 07:20:00,,0823.4,5.00,0.00,21.7,20.8,00.0,30.7,23.3,05.3,0000.0,0005.68,0003.29,0002.85
2022-03-10 07:21:00,,0823.3,5.00,0.00,21.7,20.5,00.0,30.7,23.2,05.3,0000.0,0006.09,0003.29,0002.85
2022-03-10 07:22:00,,0823.3,5.01,0.00,21.6,20.4,00.0,30.7,23.1,05.3,0000.0,0005.29,0003.28,0002.87
2022-03-10 07:23:00,,0823.3,4.99,0.00,21.6,20.9,00.0,30.7,23.2,05.3,0000.0,0005.22,0003.27,0002.87
2022-03-10 07:24:00,,0823.2,4.99,0.00,21.7,21.8,00.0,30.7,23.5,05.3,0000.0,0005.17,0003.26,0002.86
2022-03-10 07:25:00,,0823.2,5.00,0.00,21.9,22.7,00.0,30.8,23.8,05.2,0000.0,0005.15,0003.26,0002.86
2022-03-10 07:26:00,,0823.2,5.00,0.00,22.0,23.0,00.0,30.8,24.0,05.2,0000.0,0005.08,0003.24,0002.87
2022-03-10 07:27:00,,0823.2,4.99,0.00,22.0,22.5,00.0,30.8,23.9,05.2,0000.0,0005.01,0003.24,0002.90
2022-03-10 07:28:00,,0823.2,5.00,0.00,22.0,22.0,00.0,30.8,23.8,05.2,0000.0,0004.94,0003.25,0002.97
2022-03-10 07:29:00,,0823.3,5.00,0.00,22.0,21.5,00.0,30.8,23.7,05.2,0000.0,0004.82,0003.27,0003.04
2022-03-10 07:30:00,,0823.3,5.00,0.00,21.9,21.2,00.0,30.8,23.6,05.2,0000.0,0005.04,0003.32,0003.07
2022-03-10 07:31:00,,0823.2,5.01,0.00,21.8,20.9,00.0,30.8,23.4,05.2,0000.0,0004.92,0003.33,0003.08
2022-03-10 07:32:00,,0823.2,4.99,0.00,21.8,20.6,00.0,30.8,23.3,05.2,0000.0,0004.59,0003.34,0003.10
2022-03-10 07:33:00,,0823.2,4.99,0.00,21.7,20.5,00.0,30.8,23.3,05.3,0000.0,0004.69,0003.35,0003.12
2022-03-10 07:34:00,,0823.3,5.02,0.00,21.7,20.4,00.0,30.8,23.2,05.3,0000.0,0004.77,0003.36,0003.13
2022-03-10 07:35:00,,0823.2,5.00,0.00,21.6,20.7,00.0,30.7,23.2,05.3,0000.0,0004.88,0003.37,0003.15
2022-03-10 07:36:00,,0823.3,4.99,0.00,21.7,21.6,00.0,30.8,23.4,05.3,0000.0,0004.93,0003.39,0003.17
2022-03-10 07:37:00,,0823.3,5.01,0.00,21.9,22.4,00.0,30.8,23.7,05.2,0000.0,0004.90,0003.38,0003.17
2022-03-10 07:38:00,,0823.4,4.99,0.00,22.0,22.5,00.0,30.8,23.8,05.2,0000.0,0004.88,0003.38,0003.16
2022-03-10 07:39:00,,0823.4,4.99,0.00,22.0,22.2,00.0,30.8,23.8,05.2,0000.0,0004.81,0003.35,0003.14
2022-03-10 07:40:00,,0823.4,5.01,0.00,22.0,21.8,00.0,30.8,23.7,05.2,0000.0,0004.73,0003.32,0003.12
2022-03-10 07:41:00,,0823.3,5.00,0.00,21.9,21.5,00.0,30.8,23.6,05.2,0000.0,0004.59,0003.29,0003.10
2022-03-10 07:42:00,,0823.3,5.00,0.00,21.9,21.2,00.0,30.8,23.5,05.2,0000.0,0004.60,0003.29,0003.10
2022-03-10 07:43:00,,0823.3,5.00,0.00,21.8,21.0,00.0,30.8,23.5,05.2,0000.0,0004.48,0003.28,0003.09
2022-03-10 07:44:00,,0823.2,5.00,0.00,21.8,20.7,00.0,30.8,23.4,05.3,0000.0,0004.46,0003.29,0003.09
2022-03-10 07:45:00,,0823.2,4.99,0.00,21.7,20.6,00.0,30.8,23.3,05.3,0000.0,0004.40,0003.31,0003.12
2022-03-10 07:46:00,,0823.3,5.00,0.00,21.7,21.1,00.0,30.8,23.4,05.3,0000.0,0004.32,0003.31,0003.12
2022-03-10 07:47:00,,0823.3,5.01,0.00,21.9,22.1,00.0,30.8,23.6,05.3,0000.0,0004.24,0003.31,0003.13
2022-03-10 07:48:00,,0823.2,5.00,0.00,22.0,22.7,00.0,30.9,23.9,05.2,0000.0,0004.30,0003.34,0003.15
2022-03-10 07:49:00,,0823.2,4.99,0.00,22.1,22.5,00.0,30.9,24.0,05.2,0000.0,0004.73,0003.36,0003.16
2022-03-10 07:50:00,,0823.2,5.00,0.00,22.1,22.0,00.0,30.9,23.9,05.2,0000.0,0004.97,0003.38,0003.19
2022-03-10 07:51:00,,0823.2,5.01,0.00,22.0,21.7,00.0,30.9,23.7,05.2,0000.0,0004.99,0003.39,0003.20
2022-03-10 07:52:00,,0823.2,5.00,0.00,22.0,21.4,00.0,30.9,23.7,05.2,0000.0,0004.99,0003.40,0003.21
2022-03-10 07:53:00,,0823.2,4.99,0.00,21.9,21.2,00.0,30.9,23.6,05.3,0000.0,0004.95,0003.42,0003.24
2022-03-10 07:54:00,,0823.2,4.99,0.00,21.9,21.1,00.0,30.9,23.5,05.3,0000.0,0005.07,0003.46,0003.27
2022-03-10 07:55:00,,0823.2,5.01,0.00,21.9,21.0,00.0,30.9,23.5,05.3,0000.0,0005.17,0003.50,0003.29
2022-03-10 07:56:00,,0823.2,4.99,0.00,21.8,20.8,00.0,30.9,23.4,05.3,0000.0,0005.75,0003.50,0003.29
2022-03-10 07:57:00,,0823.2,5.00,0.00,21.8,21.2,00.0,30.9,23.5,05.3,0000.0,0006.81,0003.52,0003.30
2022-03-10 07:58:00,,0823.2,5.01,0.00,21.9,22.1,00.0,30.9,23.7,05.3,0000.0,0006.86,0003.52,0003.30
2022-03-10 07:59:00,,0823.2,5.00,0.00,22.1,22.8,00.0,31.0,24.0,05.2,0000.0,0006.94,0003.52,0003.30
